TimeMDT,TemperatureF,Dew PointF,Humidity,Sea Level PressureIn,VisibilityMPH,Wind Direction,Wind SpeedMPH,Gust SpeedMPH,PrecipitationIn,Events,Conditions,WindDirDegrees,DateUTC
12:55 AM,42.8,33.8,70,30.09,25.0,Calm,Calm,-,N/A,,Mostly Cloudy,0,2012-10-12 06:55:00
1:55 AM,42.8,35.6,76,30.07,25.0,SSW,11.5,-,N/A,,Mostly Cloudy,200,2012-10-12 07:55:00
2:55 AM,41.0,33.8,76,30.06,25.0,West,5.8,-,N/A,,Mostly Cloudy,260,2012-10-12 08:55:00
3:55 AM,41.0,33.8,76,30.04,25.0,WNW,5.8,-,N/A,,Mostly Cloudy,290,2012-10-12 09:55:00
4:55 AM,37.4,32.0,81,30.07,25.0,NW,4.6,-,N/A,,Mostly Cloudy,320,2012-10-12 10:55:00
5:55 AM,35.6,32.0,87,30.09,25.0,NNW,3.5,-,N/A,,Mostly Cloudy,340,2012-10-12 11:55:00
6:55 AM,33.8,32.0,93,30.10,25.0,West,3.5,-,N/A,,Mostly Cloudy,280,2012-10-12 12:55:00
7:55 AM,35.6,32.0,87,30.12,70.0,West,3.5,-,N/A,,Mostly Cloudy,270,2012-10-12 13:55:00
8:55 AM,41.0,32.0,70,30.09,70.0,NW,3.5,-,N/A,,Mostly Cloudy,310,2012-10-12 14:55:00
9:55 AM,46.4,33.8,62,30.04,70.0,North,3.5,-,N/A,,Mostly Cloudy,350,2012-10-12 15:55:00
10:55 AM,50.0,35.6,58,30.02,25.0,NNE,3.5,-,N/A,,Mostly Cloudy,20,2012-10-12 16:55:00
11:55 AM,51.8,35.6,54,29.98,25.0,ENE,5.8,-,N/A,,Mostly Cloudy,70,2012-10-12 17:55:00
12:55 PM,55.4,39.2,54,29.97,25.0,WSW,6.9,-,N/A,,Overcast,240,2012-10-12 18:55:00
1:55 PM,60.8,42.8,52,29.83,25.0,ESE,12.7,-,N/A,,Mostly Cloudy,120,2012-10-12 19:55:00
2:55 PM,66.2,44.6,46,29.82,25.0,West,9.2,-,N/A,,Mostly Cloudy,270,2012-10-12 20:55:00
3:55 PM,68.0,42.8,40,29.78,25.0,East,1.2,-,N/A,,Mostly Cloudy,100,2012-10-12 21:55:00
4:36 PM,68.0,41.0,37,29.91,10.0,South,17.3,26.5,N/A,Thunderstorm,Thunderstorm,180,2012-10-12 22:36:00
4:50 PM,66.2,41.0,40,29.92,10.0,South,28.8,33.4,N/A,Rain-Thunderstorm,Light Thunderstorms and Rain,180,2012-10-12 22:50:00
4:55 PM,64.4,46.4,52,29.81,7.0,SSW,38.0,43.7,N/A,Rain-Thunderstorm,Light Thunderstorms and Rain,200,2012-10-12 22:55:00
5:31 PM,53.6,48.2,82,29.94,7.0,South,3.5,-,N/A,,Mostly Cloudy,180,2012-10-12 23:31:00
5:58 PM,53.6,46.4,77,29.86,70.0,WSW,5.8,-,N/A,,Mostly Cloudy,240,2012-10-12 23:58:00
6:55 PM,53.6,44.6,72,29.88,25.0,South,4.6,-,N/A,,Mostly Cloudy,180,2012-10-13 00:55:00
7:55 PM,53.6,44.6,72,29.87,10.0,South,12.7,-,N/A,,Mostly Cloudy,170,2012-10-13 01:55:00
8:55 PM,51.8,44.6,76,29.84,10.0,SW,9.2,-,N/A,,Mostly Cloudy,220,2012-10-13 02:55:00
9:55 PM,53.6,42.8,67,29.84,10.0,NW,17.3,-,N/A,,Scattered Clouds,320,2012-10-13 03:55:00
10:55 PM,48.2,42.8,82,29.83,10.0,WNW,5.8,-,N/A,,Scattered Clouds,300,2012-10-13 04:55:00
11:55 PM,46.4,41.0,81,29.81,10.0,NNW,3.5,-,N/A,,Partly Cloudy,330,2012-10-13 05:55:00